Weather in Loutraki

Greece     37°58′21″N   22°58′39″E
temp.,
°C
wind,
m/s
gust,
m/s
humid.,
%
clouds,
%
prec.,
mm/h
press.,
hPa
HPBL,
m
24 october, sun
sun2400:00+19wsw22760 0.0 102184
03:00+18w227197 0.0 1021103
06:00+18wnw337944 0.0 1021133
09:00+19nnw127460 0.0 1022176
12:00+22nne225998 0.0 1023722
15:00+20nne446792 0.1 1022599
18:00+18nne4571100 0.1 1023520
21:00+16nne5683100 1.6 1025621
25 october, mon
mon2500:00+14nne4684100 4.3 1026554
03:00+14nne3682100 7.4 1026664
06:00+13nne4873100 1.1 10261143
09:00+13n3768100 1.4 10271066
12:00+14nne6963100 0.0 10271451
15:00+15nne81055100 0.0 10261556
18:00+13nne81059100 0.0 10251292
21:00+13nne71059100 0.0 10261083
26 october, tue
tue2600:00+14n5958100 0.0 1025924
03:00+13n5861100 0.0 1023651
06:00+12nne4664100 0.0 1023506
09:00+13nne4862100 0.0 10231170
12:00+14nne5757100 0.0 10231237
15:00+15n465628 0.0 10211286
18:00+14nne356217 0.0 10211092
21:00+13nne33670 0.0 1021315
27 october, wed
wed2700:00+12nne34700 0.0 1021276
03:00+12nne237112 0.0 1021241
06:00+11ne237399 0.0 1020239
09:00+13ne23696 0.0 1021268
12:00+15nne33549 0.0 10211053
15:00+17nne23495 0.0 10201245
18:00+16nne3355100 0.0 1019430
21:00+14nne3464100 0.0 1021280
28 october, thu
thu2800:00+13ne3467100 0.0 1022269
03:00+13nne346997 0.0 1021292
06:00+12nne237490 0.0 1021250
09:00+13nne3876100 0.1 10211008
12:00+15n5969100 0.2 10221256
15:00+15n4972100 0.3 10201182
18:00+14nnw3486100 0.9 1020487
21:00+14nw3391100 3.0 1020337